GFSFLT2_250_spd_000.txt.gz
Wind_Speed
90 91 89 90 93 94 96 98 86 77 62 58 55 45 41 38 38 41 41 41 44 48 49 49 48 40 38 33 32 24 24 25
91 92 92 93 94 93 94 89 78 55 57 49 49 41 43 45 45 46 51 52 53 55 55 51 47 40 39 36 32 28 24 22
93 91 91 91 89 88 83 65 59 59 55 50 47 45 46 46 47 50 50 53 54 52 48 46 42 40 39 36 34 30 29 26
87 86 86 88 85 71 56 57 53 52 48 50 49 48 50 52 55 54 56 56 54 46 41 42 41 42 41 39 38 35 32 30
87 84 85 79 65 62 52 49 47 48 50 55 56 54 55 54 55 56 54 51 48 48 46 43 43 43 44 46 45 41 38 35
84 80 76 67 53 47 48 48 50 50 47 46 50 55 57 55 52 48 49 49 50 49 46 48 49 49 49 47 45 44 44 42
67 69 62 52 49 49 48 46 47 42 48 52 55 57 53 48 49 50 51 48 48 49 52 50 50 50 51 51 52 51 48 46
61 57 57 50 50 44 48 46 44 48 53 58 58 56 56 53 49 48 55 54 54 54 55 54 56 56 57 56 55 53 53 52
61 56 48 48 50 54 49 54 54 49 57 60 61 59 59 53 56 58 58 56 55 55 57 59 58 58 57 56 54 56 58 58
43 46 46 51 52 58 58 61 52 53 56 60 63 59 56 57 61 65 65 64 62 61 61 63 62 63 63 61 61 63 64 67
43 40 48 53 55 57 58 59 57 58 60 63 61 60 60 61 65 66 65 66 69 69 69 66 68 68 68 67 67 69 72 73
41 42 47 48 52 54 55 56 60 63 66 67 63 63 64 68 71 71 70 70 73 76 75 74 76 76 76 77 78 81 83 83
40 46 47 48 52 56 58 61 63 67 68 63 65 68 72 73 74 75 77 79 80 80 80 82 84 83 82 83 84 86 88 93
45 46 50 53 54 57 60 65 68 69 65 67 70 74 77 79 82 86 87 88 88 89 90 90 93 94 94 94 92 94 97 98
43 48 52 53 57 61 65 68 67 68 71 75 79 82 84 87 92 93 92 91 93 95 98 101 104 106 106 108 108 106 105 108
48 52 55 58 61 64 64 65 68 70 74 79 83 86 90 94 97 98 100 101 105 108 111 114 115 116 117 117 119 118 115 111
53 55 57 59 60 61 62 65 69 74 79 85 91 94 98 100 103 106 109 113 117 120 125 128 129 129 127 128 129 122 116 114
55 57 57 58 62 64 68 73 76 80 86 91 96 100 105 109 112 115 119 125 129 133 134 135 136 133 128 123 119 112 106 103
56 56 58 62 65 69 73 77 82 87 92 97 102 106 109 115 119 123 128 133 138 137 136 135 133 130 124 118 113 107 102 94
59 62 66 70 72 75 79 82 86 90 95 102 107 113 118 122 125 129 136 140 134 131 130 128 124 116 110 103 98 95 92 89

GFSFLT2_250_spd_003.txt.gz
Wind_Speed
84 82 86 90 93 89 92 93 93 93 92 89 84 65 59 55 51 49 48 49 48 50 55 58 57 56 54 49 43 40 36 35
83 85 87 88 92 90 93 96 94 91 87 83 59 58 54 47 50 48 50 49 50 55 58 57 56 53 44 40 38 39 39 36
87 87 87 89 90 91 89 93 90 88 80 69 62 53 51 50 53 53 51 53 55 56 55 54 51 45 44 40 39 42 41 39
86 87 86 88 89 89 88 83 80 79 70 63 54 56 56 53 48 47 52 56 52 46 44 46 46 47 46 42 42 42 43 42
81 84 88 88 83 85 77 78 79 66 59 57 60 57 53 47 49 53 56 52 51 50 49 50 48 47 48 50 49 47 44 44
83 78 80 83 76 74 79 70 62 61 58 62 58 58 55 55 51 56 56 55 54 52 46 51 54 52 52 50 47 47 49 50
81 83 80 85 80 74 65 53 55 57 59 58 58 58 59 59 59 59 61 61 54 53 54 57 57 57 56 56 55 55 56 54
81 81 82 78 76 64 60 53 56 60 60 62 61 63 64 61 60 60 60 59 56 56 56 57 58 59 60 60 60 61 60 58
76 75 73 63 57 55 58 57 56 60 62 64 64 62 62 62 64 65 64 61 59 59 60 61 60 62 62 63 65 65 65 63
75 65 48 41 36 40 49 59 60 63 63 62 63 64 63 68 71 69 68 62 61 64 65 65 65 65 67 69 70 70 70 68
49 36 32 33 43 55 64 68 67 66 65 64 64 65 69 72 72 72 68 67 68 69 70 70 69 70 73 75 77 77 77 76
40 37 37 45 56 68 73 72 71 74 71 70 70 71 72 74 74 71 72 73 73 75 76 78 80 81 81 80 81 84 86 84
41 42 48 53 61 67 70 74 77 77 74 74 75 77 78 76 75 75 76 77 79 80 82 85 89 90 90 88 87 88 90 91
52 54 54 56 63 69 73 75 74 76 77 77 78 77 77 77 79 80 82 86 89 90 92 93 95 97 96 96 94 97 100 102
52 53 53 55 58 62 65 69 73 75 75 76 78 79 80 82 86 88 91 94 98 101 103 105 106 108 109 109 108 107 107 113
50 50 49 53 57 61 65 70 72 73 75 79 81 82 85 88 93 96 101 105 109 112 115 118 120 122 124 125 127 126 125 122
47 49 53 58 61 65 67 69 72 75 78 80 83 86 90 96 101 106 109 112 118 122 126 128 129 130 129 126 124 124 121 116
50 53 57 61 63 66 69 71 73 76 78 83 89 96 101 103 109 114 118 122 125 129 129 130 130 129 128 126 123 120 118 116
55 57 59 62 66 69 71 74 77 81 85 89 94 99 103 109 115 118 123 128 130 130 131 129 129 128 125 124 119 112 106 100
56 58 61 65 68 71 72 75 78 83 87 92 99 103 109 115 122 126 130 131 130 129 125 124 122 121 119 111 105 99 95 91

GFSFLT2_250_spd_006.txt.gz
Wind_Speed
80 80 80 80 84 83 89 91 91 88 88 94 98 96 94 85 83 75 70 63 64 58 53 50 49 53 52 52 47 41 38 36
79 78 84 82 86 92 92 91 85 88 92 95 97 86 81 79 73 67 61 64 59 51 46 49 51 51 44 41 41 41 39 37
79 81 85 87 87 87 82 83 85 94 88 86 87 78 78 70 65 70 65 63 54 52 49 48 47 48 52 46 44 41 41 40
79 80 83 87 82 84 87 88 89 87 89 87 73 76 69 65 65 64 64 60 53 50 50 53 51 52 50 45 45 47 45 43
82 85 79 78 80 84 84 81 86 81 80 71 70 69 66 71 62 59 62 58 59 57 52 50 54 54 49 44 46 46 48 47
81 79 79 77 82 81 82 83 77 72 66 63 62 65 65 67 65 63 61 63 59 56 56 57 55 53 51 51 49 48 48 50
73 78 80 77 81 79 76 70 70 64 63 61 60 59 62 64 65 65 64 61 61 60 61 64 62 57 54 55 56 54 53 52
74 77 81 80 80 70 66 62 65 62 55 52 52 56 61 67 68 66 65 66 66 66 69 70 67 62 60 60 61 62 59 56
84 82 79 75 63 58 59 60 62 55 46 45 55 63 69 67 69 70 72 72 71 72 72 72 71 66 65 65 66 65 63 61
76 71 66 57 45 35 38 56 60 63 61 64 64 72 73 71 75 78 77 75 74 75 76 77 75 71 72 72 72 72 71 70
60 53 47 37 42 38 53 58 60 64 72 72 74 79 79 79 83 82 81 79 81 83 81 78 76 74 71 73 76 76 76 77
47 41 38 39 47 54 62 62 70 75 76 80 83 84 85 86 86 84 83 85 84 82 81 80 79 78 80 83 86 87 86 87
44 34 45 52 54 59 62 67 73 77 81 85 87 87 85 83 83 84 84 82 84 84 86 87 90 89 90 91 94 97 99 99
44 49 54 58 60 65 69 71 72 74 77 80 80 81 82 84 85 84 86 88 89 89 90 92 95 96 97 99 99 102 105 109
51 54 56 58 60 62 65 67 69 72 74 76 79 81 84 85 86 89 91 92 93 95 96 97 102 108 111 113 114 113 114 116
49 51 53 56 56 58 60 63 67 71 74 77 80 84 87 89 90 91 94 95 98 101 106 111 113 116 119 123 126 128 128 124
45 47 50 53 56 60 62 65 70 73 76 78 80 83 84 86 89 93 98 103 107 110 116 120 122 127 129 131 134 134 130 124
47 50 53 56 59 62 65 67 69 72 75 76 78 82 86 91 95 100 105 110 112 119 124 128 130 135 135 133 130 124 124 120
51 54 56 58 60 62 64 67 69 71 75 79 82 85 91 95 102 107 112 117 120 126 130 131 126 125 122 121 120 117 114 109
53 55 57 59 62 63 66 69 71 74 78 82 86 91 97 103 109 114 119 121 123 127 124 120 119 115 112 110 104 100 95 91

GFSFLT2_250_spd_012.txt.gz
Wind_Speed
63 67 63 79 67 73 74 77 82 78 86 79 73 77 80 80 81 86 85 82 91 79 76 64 67 60 49 45 45 41 39 36
73 70 64 71 75 71 76 74 76 72 66 74 69 79 82 90 84 85 85 89 85 77 70 67 57 49 42 45 44 40 41 36
70 72 76 81 71 75 80 77 74 77 74 76 83 82 87 86 83 87 90 86 75 74 66 57 50 44 41 41 39 39 38 38
80 75 65 65 69 68 62 67 68 71 75 84 86 85 85 87 92 89 85 76 73 77 54 54 48 50 47 46 45 46 47 45
70 78 79 70 68 67 70 68 72 78 79 79 86 87 89 97 92 87 87 80 74 60 58 56 56 55 55 54 55 56 56 50
51 51 57 60 61 65 65 69 75 79 82 86 86 88 94 90 85 79 76 65 62 64 63 65 66 66 65 63 66 63 64 57
66 67 62 62 63 64 70 77 77 77 83 86 90 88 82 84 75 73 64 64 65 67 66 68 73 75 79 74 72 70 67 61
68 67 65 67 74 80 81 85 85 85 86 83 74 73 66 74 67 70 72 72 72 73 74 79 81 85 82 79 75 76 72 69
65 69 71 75 75 76 78 76 74 69 70 67 66 61 62 68 71 74 75 75 78 78 83 84 87 88 84 81 79 75 74 72
55 59 60 65 63 61 50 48 55 59 59 59 59 58 63 68 72 76 82 83 84 90 90 89 84 82 81 80 79 78 75 74
52 52 54 52 50 51 45 51 56 46 52 53 58 66 69 73 78 83 84 87 91 91 87 84 82 81 82 83 81 80 77 76
48 47 46 45 46 46 49 53 55 57 62 68 71 75 78 81 85 87 87 87 86 84 83 84 85 83 84 81 78 76 76 79
43 43 42 42 43 48 52 55 56 60 65 67 71 74 78 81 80 81 82 83 85 85 85 85 84 80 80 80 81 83 83 87
37 39 41 43 46 48 52 56 59 62 63 64 67 70 73 76 80 82 84 85 84 85 85 85 83 79 83 87 88 93 98 99
37 39 41 44 46 48 51 54 57 60 64 67 71 73 76 78 81 83 84 84 84 82 80 81 87 91 90 95 101 105 106 112
35 38 41 44 47 51 55 58 61 65 68 71 73 76 78 80 81 81 82 82 81 80 85 90 92 98 102 107 110 111 116 118
37 42 46 50 53 57 60 64 67 70 72 74 75 75 74 73 73 73 76 79 83 89 92 95 99 105 111 114 118 122 123 121
41 45 49 53 56 60 62 65 66 67 68 68 67 66 67 69 71 76 80 85 90 93 97 102 106 112 117 120 122 122 119 117
41 44 46 47 49 51 55 58 61 63 65 66 68 69 72 75 79 83 87 90 93 96 102 107 114 117 118 117 113 113 110 110
43 44 47 48 51 56 59 61 63 65 68 69 71 72 75 78 83 86 90 94 97 103 109 112 114 114 113 108 105 105 103 99

GFSFLT2_250_spd_015.txt.gz
Wind_Speed
47 50 54 61 72 75 73 68 65 74 75 74 69 69 77 83 83 80 75 72 80 81 80 83 85 82 72 61 62 58 48 38
58 63 60 65 72 74 69 77 69 75 69 71 80 85 83 81 72 77 75 76 84 82 84 87 80 71 60 57 52 46 45 38
72 75 76 74 75 73 73 77 77 78 77 83 80 79 75 72 76 78 81 82 84 88 90 78 77 63 49 49 50 46 47 45
74 72 78 78 71 76 75 83 81 75 77 79 80 76 73 79 80 84 84 85 86 88 81 73 60 52 52 49 49 56 54 46
77 77 76 75 77 79 71 75 84 79 79 80 79 78 79 83 88 90 87 87 85 75 69 63 56 56 57 56 55 57 65 58
73 75 75 79 83 85 74 72 70 70 71 75 80 84 89 91 92 89 83 77 68 70 61 64 62 62 63 63 63 67 71 70
66 72 74 66 62 61 61 68 72 75 81 85 89 92 91 89 84 80 79 74 68 69 66 67 68 69 72 74 76 77 78 68
61 66 69 70 74 76 77 79 84 88 90 87 87 78 73 73 71 71 72 70 70 69 70 73 73 78 82 82 84 81 79 74
63 68 73 77 72 74 78 82 79 79 81 72 74 78 72 63 65 66 62 62 69 75 80 82 80 84 87 87 81 77 75 74
62 65 69 71 69 65 66 66 66 64 64 56 57 60 57 59 60 71 70 74 76 82 86 87 92 89 82 83 80 78 78 77
51 54 54 55 57 60 62 64 63 61 61 65 66 66 66 72 74 75 80 83 86 88 89 87 84 85 84 82 83 80 81 80
49 49 51 54 57 59 62 63 64 62 62 62 65 67 71 73 74 78 81 79 78 80 80 84 85 84 85 85 87 86 83 80
47 48 50 52 54 53 54 53 55 56 58 60 63 64 67 68 70 73 77 82 82 84 86 88 89 90 87 85 85 86 82 83
44 46 44 43 43 44 46 47 49 51 55 59 63 67 70 74 78 81 83 86 88 89 90 89 88 86 86 82 81 84 90 92
33 33 33 35 39 43 46 50 55 58 63 67 70 75 78 81 84 87 90 91 92 91 88 84 83 83 87 89 88 90 94 100
28 31 35 39 43 47 50 54 56 59 61 63 67 69 73 75 77 77 78 76 76 77 79 81 85 89 91 95 98 101 104 104
31 34 38 42 46 48 49 49 51 52 54 58 60 64 66 69 69 70 71 74 75 79 83 88 89 92 99 104 108 112 115 117
33 36 39 41 44 46 49 53 56 58 60 62 64 66 67 69 70 71 73 76 80 82 85 91 96 103 109 113 116 119 119 120
33 35 38 41 45 49 51 55 58 59 62 64 68 69 70 70 71 75 78 81 83 89 94 101 106 111 114 115 115 115 113 109
37 41 45 48 52 56 59 63 66 68 69 71 73 74 74 74 76 80 83 88 92 98 104 108 109 108 112 111 107 106 104 101

GFSFLT2_250_spd_021.txt.gz
Wind_Speed
49 49 56 55 59 57 60 58 49 46 48 46 50 53 59 60 67 66 66 69 80 81 74 77 78 79 82 81 85 86 85 86
40 35 42 56 59 61 55 47 41 46 47 50 51 58 62 66 68 69 75 77 76 71 72 75 80 84 89 85 89 94 89 92
31 38 57 59 52 40 39 42 48 49 51 53 57 61 65 71 71 81 79 71 72 73 81 89 89 87 90 92 94 94 96 99
40 46 44 40 40 45 48 53 53 60 56 57 64 68 67 65 70 77 73 75 82 87 93 93 91 91 96 96 102 97 95 78
40 57 63 59 49 44 53 56 56 55 55 61 66 70 70 80 70 78 84 85 84 87 90 89 92 97 98 96 92 87 80 70
39 50 59 58 56 60 57 62 67 65 68 70 72 78 79 79 82 82 81 89 93 95 97 99 96 96 95 90 85 83 81 78
53 60 61 62 64 66 69 75 80 79 76 79 82 84 84 84 91 93 95 97 97 99 96 95 96 94 88 84 80 78 81 83
61 67 70 69 71 77 81 77 77 82 82 87 94 97 98 98 98 96 95 96 98 100 93 93 90 88 83 80 79 80 83 88
58 66 74 79 79 82 86 90 89 90 90 93 95 99 98 97 96 97 90 89 91 92 94 92 88 83 84 86 85 82 81 83
56 72 76 76 74 78 82 87 88 86 90 92 89 91 92 94 94 91 89 88 90 87 83 80 80 81 82 85 86 87 88 90
54 57 60 65 75 83 83 80 82 84 81 83 87 88 83 83 84 83 83 80 76 75 76 77 79 80 79 80 80 78 78 79
44 46 49 51 57 62 68 71 77 84 82 81 76 75 74 75 74 71 72 72 74 74 74 75 75 75 77 78 80 78 77 77
45 50 55 57 59 60 62 65 68 67 68 68 67 66 64 63 64 63 65 67 69 71 73 74 76 79 80 80 79 79 79 79
47 48 52 51 51 55 55 57 58 58 56 55 54 56 55 54 57 62 64 67 70 72 72 75 77 79 78 77 76 78 81 82
43 48 51 52 51 51 51 47 45 48 50 50 50 50 53 57 62 66 69 72 74 76 77 77 77 77 79 78 77 78 82 87
39 43 43 44 45 40 41 42 43 42 44 48 52 56 60 62 67 69 72 75 78 78 78 79 79 80 82 85 88 89 91 93
34 35 35 36 39 41 40 39 41 44 46 51 55 58 62 67 71 75 79 82 81 79 79 81 83 87 91 94 97 100 100 99
29 33 36 38 38 41 42 44 49 51 54 58 62 66 70 75 79 82 85 82 82 82 84 89 94 96 99 102 103 97 96 96
31 34 37 42 44 45 45 49 54 58 60 64 69 73 77 81 84 85 83 81 85 89 93 96 101 105 108 108 103 98 98 104
31 35 41 46 50 51 51 54 57 61 65 69 73 78 82 86 87 84 84 84 88 95 98 103 108 111 109 107 103 100 100 105

GFSFLT2_250_spd_024.txt.gz
Wind_Speed
40 37 45 51 56 54 54 50 51 53 55 54 58 54 47 50 52 51 50 56 62 64 66 73 72 72 84 77 76 74 81 85
20 46 49 54 60 59 53 49 49 56 57 51 47 43 51 53 54 56 58 57 61 67 65 73 81 83 76 78 80 87 86 93
50 56 57 40 42 43 52 52 58 59 50 45 45 51 57 60 57 58 61 68 65 70 74 74 80 87 87 88 92 95 100 102
43 63 54 47 53 44 57 62 60 54 47 51 53 57 59 61 60 61 60 66 70 81 82 83 84 88 95 98 100 102 102 96
70 66 62 53 58 65 61 60 54 43 48 56 51 50 49 52 59 66 78 78 77 78 87 91 98 98 96 99 97 92 93 91
51 62 60 51 52 55 63 60 50 52 57 53 58 60 62 68 70 77 86 91 92 93 100 102 104 97 93 92 88 84 84 86
43 52 49 56 59 61 64 67 67 66 66 72 73 74 76 78 81 83 83 89 91 93 94 94 95 94 91 88 88 88 86 88
53 49 52 52 59 63 69 74 76 77 76 80 82 86 88 87 88 89 95 98 97 97 94 92 90 89 89 92 93 88 88 87
59 55 58 59 64 71 70 72 76 79 84 85 87 90 92 95 98 96 97 92 91 92 89 87 89 87 83 84 87 89 88 88
55 57 59 62 63 68 70 73 77 81 84 87 88 89 90 92 88 85 88 89 87 86 81 79 79 81 81 83 84 84 83 84
58 55 55 57 73 72 72 73 76 76 73 69 72 76 80 90 86 80 80 80 81 75 73 72 74 76 78 81 81 81 82 82
53 54 58 59 61 69 76 73 67 67 69 69 73 77 78 78 80 76 73 72 73 69 69 73 77 81 82 83 83 83 81 82
53 57 64 65 62 59 59 61 63 67 70 69 71 72 72 70 70 70 69 66 66 67 72 75 79 82 84 85 84 83 81 80
55 53 51 51 52 53 59 61 61 62 64 66 67 66 65 65 65 62 62 64 68 72 76 80 84 86 85 81 79 81 85 90
42 45 46 49 51 53 56 57 59 59 60 60 60 61 62 61 60 62 64 68 74 78 83 87 88 85 82 81 82 85 89 93
40 41 41 43 47 49 49 51 50 52 54 58 60 62 60 63 65 67 70 73 78 82 87 89 88 86 86 86 89 92 95 98
37 37 38 44 43 42 43 45 48 53 56 59 60 62 66 69 70 70 72 76 82 87 89 88 88 88 89 93 97 101 104 106
32 36 35 34 38 41 44 47 52 55 59 61 62 64 65 66 68 70 75 81 86 89 90 89 88 90 92 96 101 105 109 112
32 34 36 36 40 44 45 48 51 53 56 59 63 65 65 66 70 76 80 84 89 93 91 90 91 92 96 101 108 110 111 108
35 39 40 43 44 46 49 51 53 56 60 61 63 63 64 70 77 82 85 89 92 95 93 94 95 98 105 109 110 109 106 106